QUAO2: Spring River Near Quapaw, OK

Data processed at Sun Jul 15 2018 23:20


All information presented herein is the property of the government of the United States of America and may be revised or deleted at any time without prior notice.
Dissemination of this information without the expressed written consent of the Public Affairs Office, Tulsa District U.S. Army Corps of Engineers is strictly prohibited.
These data are gathered electronically and, as presented, have not undergone any form of quality control. These data are not guaranteed to be valid or correct.
Go to home page.
Go to station list.

Upstream stations:

Downstream station:
Previous Day
Next Day
Current Day
    
SHEF ID:       QUAO2     Spring River near Quapaw, OK
STATION TYPE:  

               PRECIP     STAGE  STAGE(2)  RIV-FLOW  BAT-LOAD
                   in        ft        ft       cfs      volt
              Ccp-Rev   Ccp-Rev   Ccp-Rev   Ccp-Rev   Ccp-Rev
(US/Central)
07/13 00:00      0.00      5.76      5.77       306     12.41
07/13 01:00      0.00      5.76      5.77       306     12.41
07/13 02:00      0.00      5.75      5.76       302     12.41
07/13 03:00      0.00      5.74      5.75       299     12.41
07/13 04:00      0.00      5.73      5.74       295     12.41
07/13 05:00      0.00      5.71      5.73       288     12.41
07/13 06:00      0.00      5.70      5.71       285     12.41
07/13 07:00      0.00      5.68      5.70       278     12.41
07/13 08:00      0.00      5.67      5.62       275     12.41
07/13 09:00      0.00      5.66      5.67       271     12.57
07/13 10:00      0.00      5.65      5.65       268     12.81
07/13 11:00      0.00      5.64      5.63       265     13.21
07/13 12:00      0.00      5.63      5.61       262     13.13
07/13 13:00      0.00      5.63      5.55       262     13.21
07/13 14:00      0.00      5.61      5.58       255     13.05
07/13 15:00      0.00      5.60      5.53       252     13.05
07/13 16:00      0.00      5.59      5.52       249     13.05
07/13 17:00      0.00      5.59      5.48       249     13.21
07/13 18:00      0.00      5.58      5.49       246     13.05
07/13 19:00      0.00      5.57      5.51       243     13.05
07/13 20:00      0.00      5.56      5.55       240     12.97
07/13 21:00      0.00      5.55      5.54       237     12.65
07/13 22:00      0.00      5.55      5.54       237     12.49
07/13 23:00      0.00      5.54      5.54       234     12.49